(86904) = 2000 HM46 = 2001 RG60

Discovered at Socorro on 2000-04-29 by LINEAR.

Orbit

Orbit type: Main Belt

Note: WebGL enabled browser required.

epoch2023-09-13.0
epoch JD2460200.5
perihelion date2019-07-10.14438
perihelion JD2458674.64438
argument of perihelion (°)268.81546
ascending node (°)38.97092
inclination (°)9.44905
eccentricity0.1493653
perihelion distance (AU)2.3429831
Tisserand w.r.t. Jupiter3.3
ΔV w.r.t. Earth (km/sec)10.0
semimajor axis (AU)2.7543938
mean anomaly (°)328.98662
mean daily motion (°/day)0.21560800
aphelion distance (AU)3.166
period (years)4.57
P-vector [x]0.60418776
P-vector [y]-0.65012127
P-vector [z]-0.46075968
Q-vector [x]0.79012428
Q-vector [y]0.56370895
Q-vector [z]0.24069866
absolute magnitude15.06
phase slope0.15
uncertainty0
referenceMPEC 2024-A34
observations used991
oppositions17
arc length (days)8500
first opposition used2000
last opposition used2023
residual rms (arc-secs)0.76
perturbers coarse indicatorM-v
perturbers precise indicator003Ek
first observation date used2000-04-05.0
last observation date used2023-07-14.0
computer nameMPCLINUX
JD of orbit computation2456731.550043
perihelion JD uncertainty (days)1.3866E-04
argument of perihelion uncertainty (°)4.4808E-05
ascending node uncertainty (°)3.4952E-05
inclination uncertainty (°)8.3585E-06
eccentricity uncertainty 4.8895E-08
perihelion distance uncertainty (AU)1.3393E-07
Minimum Orbit Intersection Distances (in AU)
for orbit epoch: 2460200.5, reference: E2024-A34
Mercury1.90466
Venus1.62215
Earth1.35165
Mars0.96583
Jupiter2.13712
Saturn6.00151
Uranus15.3804
Neptune27.0163

Observations

1014 total observations over interval: 2000 04 05.42955 – 2023 07 14.109802
These data are available for download (format description).

Date (UT) J2000 RA J2000 Dec Magn Location Ref
2000 04 05.42955 14 48 29.00 -14 51 19.9 18.9   704 – Lincoln Laboratory ETS, New Mexico MPS 14589
2000 04 05.44392 14 48 28.33 -14 51 18.8 19.5   704 – Lincoln Laboratory ETS, New Mexico MPS 14589
2000 04 05.45830 14 48 27.77 -14 51 19.2 19.1   704 – Lincoln Laboratory ETS, New Mexico MPS 14589
2000 04 05.47266 14 48 27.11 -14 51 20.1 19.1   704 – Lincoln Laboratory ETS, New Mexico MPS 14589
2000 04 06.44563 14 47 48.79 -14 51 28.6 19.4   704 – Lincoln Laboratory ETS, New Mexico MPS 14589
2000 04 06.45963 14 47 48.10 -14 51 29.1 19.3   704 – Lincoln Laboratory ETS, New Mexico MPS 14589
2000 04 06.47362 14 47 47.42 -14 51 28.4 19.4   704 – Lincoln Laboratory ETS, New Mexico MPS 14589
2000 04 24.27696 14 32 58.67 -14 43 54.8 18.1 R 699 – Lowell Observatory-LONEOS MPS 14589
2000 04 24.29281 14 32 57.74 -14 43 54.2   699 – Lowell Observatory-LONEOS MPS 14589
2000 04 24.30866 14 32 56.88 -14 43 53.0   699 – Lowell Observatory-LONEOS MPS 14589
2000 04 24.32446 14 32 55.94 -14 43 52.4   699 – Lowell Observatory-LONEOS MPS 14589
2000 04 26.34316 14 30 59.72 -14 42 04.1 19.3 V 691 – Steward Observatory, Kitt Peak-Spacewatch MPS 14589
2000 04 26.36456 14 30 58.44 -14 42 02.9 19.1 V 691 – Steward Observatory, Kitt Peak-Spacewatch MPS 14589
2000 04 26.38600 14 30 57.16 -14 42 01.6 18.9 V 691 – Steward Observatory, Kitt Peak-Spacewatch MPS 14589
2000 04 29.29062 14 28 08.12 -14 39 14.6 18.2   704 – Lincoln Laboratory ETS, New Mexico MPS 14589
2000 04 29.30281 14 28 07.37 -14 39 13.3 18.1   704 – Lincoln Laboratory ETS, New Mexico MPS 14589
2000 04 29.31498 14 28 06.64 -14 39 12.5 18.5   704 – Lincoln Laboratory ETS, New Mexico MPS 14589
2000 04 29.32715 14 28 05.89 -14 39 11.7 18.0   704 – Lincoln Laboratory ETS, New Mexico MPS 14589
2000 04 29.33933 14 28 05.15 -14 39 11.1 18.4   704 – Lincoln Laboratory ETS, New Mexico MPS 14589
2000 05 01.22772 14 26 14.53 -14 37 16.6 18.6 V 691 – Steward Observatory, Kitt Peak-Spacewatch MPS 1099464
2000 05 01.24904 14 26 13.24 -14 37 15.2 18.7 V 691 – Steward Observatory, Kitt Peak-Spacewatch MPS 1099464
2000 05 01.26458 14 26 12.32 -14 37 14.2 18.2 R 699 – Lowell Observatory-LONEOS MPS 14589
2000 05 01.27043 14 26 11.95 -14 37 14.0 18.7 V 691 – Steward Observatory, Kitt Peak-Spacewatch MPS 1099464
2000 05 01.28357 14 26 11.16 -14 37 12.7   699 – Lowell Observatory-LONEOS MPS 14589
2000 05 01.30248 14 26 10.03 -14 37 11.4   699 – Lowell Observatory-LONEOS MPS 14589
2000 05 01.32144 14 26 08.90 -14 37 10.4   699 – Lowell Observatory-LONEOS MPS 14589
2000 05 02.35103 14 25 08.34 -14 36 07.2 18.7 V 691 – Steward Observatory, Kitt Peak-Spacewatch MPS 1099464
2000 05 02.36448 14 25 07.53 -14 36 06.3 18.7 V 691 – Steward Observatory, Kitt Peak-Spacewatch MPS 1099464
2000 05 02.36884 14 25 07.26 -14 36 06.0 18.8 V 691 – Steward Observatory, Kitt Peak-Spacewatch MPS 1099464
2000 05 06.29057 14 21 18.58 -14 32 00.2 18.7   704 – Lincoln Laboratory ETS, New Mexico MPS 14589
2000 05 06.30289 14 21 17.85 -14 31 58.1 19.2   704 – Lincoln Laboratory ETS, New Mexico MPS 14589
2000 05 06.31526 14 21 17.11 -14 31 58.4 18.7   704 – Lincoln Laboratory ETS, New Mexico MPS 14589
2000 05 06.32754 14 21 16.34 -14 31 56.4 18.8   704 – Lincoln Laboratory ETS, New Mexico MPS 14589
2000 05 06.34028 14 21 15.61 -14 31 55.7 19.2   704 – Lincoln Laboratory ETS, New Mexico MPS 14589
2000 05 07.25868 14 20 22.75 -14 30 59.0 18.2   704 – Lincoln Laboratory ETS, New Mexico MPS 14589
2000 05 07.26827 14 20 22.17 -14 30 57.8 18.6   704 – Lincoln Laboratory ETS, New Mexico MPS 14589
2000 05 07.27786 14 20 21.57 -14 30 58.0 18.9   704 – Lincoln Laboratory ETS, New Mexico MPS 14589
2000 05 07.28760 14 20 21.02 -14 30 57.1 18.8   704 – Lincoln Laboratory ETS, New Mexico MPS 14589
2000 05 07.29718 14 20 20.46 -14 30 56.4 18.3   704 – Lincoln Laboratory ETS, New Mexico MPS 14589
2000 05 09.23184 14 18 30.34 -14 28 59.4 18.5   704 – Lincoln Laboratory ETS, New Mexico MPS 14589
2000 05 09.24416 14 18 29.57 -14 28 58.5 18.8   704 – Lincoln Laboratory ETS, New Mexico MPS 14589
2000 05 09.25652 14 18 28.72 -14 28 58.1 18.8   704 – Lincoln Laboratory ETS, New Mexico MPS 14589
2000 05 09.28116 14 18 27.36 -14 28 57.2 18.9   704 – Lincoln Laboratory ETS, New Mexico MPS 14589
2000 05 09.30535 14 18 25.92 -14 28 55.3 19.1 V 691 – Steward Observatory, Kitt Peak-Spacewatch MPS 14589
2000 05 09.30924 14 18 25.69 -14 28 55.0 19.0 V 691 – Steward Observatory, Kitt Peak-Spacewatch MPS 14589
2000 05 09.31327 14 18 25.45 -14 28 54.9 19.1 V 691 – Steward Observatory, Kitt Peak-Spacewatch MPS 14589
2000 05 10.23861 14 17 33.55 -14 28 00.2 18.5   704 – Lincoln Laboratory ETS, New Mexico MPS 14589
2000 05 10.25012 14 17 32.96 -14 27 58.9 18.5   704 – Lincoln Laboratory ETS, New Mexico MPS 14589
2000 05 10.26167 14 17 32.26 -14 27 59.8 18.6   704 – Lincoln Laboratory ETS, New Mexico MPS 14589
2000 05 10.27317 14 17 31.65 -14 27 58.2 18.4   704 – Lincoln Laboratory ETS, New Mexico MPS 14589
2000 05 10.28467 14 17 30.98 -14 27 57.2 18.6   704 – Lincoln Laboratory ETS, New Mexico MPS 14589
2000 05 22.19556 14 07 22.80 -14 19 09.2 18.5 R 699 – Lowell Observatory-LONEOS MPS 15828
2000 05 22.20587 14 07 22.35 -14 19 09.2   699 – Lowell Observatory-LONEOS MPS 15828
2000 05 22.21624 14 07 21.88 -14 19 08.5   699 – Lowell Observatory-LONEOS MPS 15828
2000 05 22.22658 14 07 21.38 -14 19 08.5   699 – Lowell Observatory-LONEOS MPS 15828
2001 07 19.43054 00 36 37.38 -07 25 05.4 19.0   644 – Palomar Mountain/NEAT MPS 37588
2001 07 19.44172 00 36 37.71 -07 25 04.7 18.7   644 – Palomar Mountain/NEAT MPS 37588
2001 07 19.45290 00 36 38.04 -07 25 03.8 18.9   644 – Palomar Mountain/NEAT MPS 37588
2001 08 26.32417 00 37 29.42 -08 00 06.6 18.5   644 – Palomar Mountain/NEAT MPS 37588
2001 08 26.33462 00 37 29.09 -08 00 08.5 18.3   644 – Palomar Mountain/NEAT MPS 37588
2001 08 26.34547 00 37 28.76 -08 00 10.2 18.5   644 – Palomar Mountain/NEAT MPS 37588
2001 09 11.29984 00 26 31.10 -08 48 55.8 18.0 R 699 – Lowell Observatory-LONEOS MPS 37588
2001 09 11.32330 00 26 29.86 -08 49 00.0   699 – Lowell Observatory-LONEOS MPS 37588
2001 09 11.34683 00 26 28.63 -08 49 04.3   699 – Lowell Observatory-LONEOS MPS 37588
2001 09 11.37039 00 26 27.41 -08 49 08.8   699 – Lowell Observatory-LONEOS MPS 37588
2001 09 12.33911 00 25 38.11 -08 52 00.7 18.8   704 – Lincoln Laboratory ETS, New Mexico MPS 36286
2001 09 12.35327 00 25 37.36 -08 52 03.1 18.9   704 – Lincoln Laboratory ETS, New Mexico MPS 36286
2001 09 12.36738 00 25 36.59 -08 52 05.3 19.3   704 – Lincoln Laboratory ETS, New Mexico MPS 36286
2001 09 12.38150 00 25 35.86 -08 52 08.5 19.0   704 – Lincoln Laboratory ETS, New Mexico MPS 36286
2001 09 12.39562 00 25 35.10 -08 52 10.9 18.8   704 – Lincoln Laboratory ETS, New Mexico MPS 36286
2001 09 16.37355 00 22 04.73 -09 03 25.3 18.8   704 – Lincoln Laboratory ETS, New Mexico MPS 36286
2001 09 16.38791 00 22 03.91 -09 03 28.0 18.7   704 – Lincoln Laboratory ETS, New Mexico MPS 36286
2001 09 16.40226 00 22 03.11 -09 03 30.8 18.8   704 – Lincoln Laboratory ETS, New Mexico MPS 36286
2001 09 16.41675 00 22 02.28 -09 03 32.8 18.7   704 – Lincoln Laboratory ETS, New Mexico MPS 36286
2001 09 25.19012 00 13 54.12 -09 23 21.5 17.8   704 – Lincoln Laboratory ETS, New Mexico MPS 48760
2001 09 25.20484 00 13 53.31 -09 23 23.6 18.3   704 – Lincoln Laboratory ETS, New Mexico MPS 48760
2001 09 25.22019 00 13 52.38 -09 23 24.6 18.5   704 – Lincoln Laboratory ETS, New Mexico MPS 48760
2001 09 25.23500 00 13 51.49 -09 23 26.3 18.1   704 – Lincoln Laboratory ETS, New Mexico MPS 48760
2001 09 25.25028 00 13 50.59 -09 23 27.9 18.2   704 – Lincoln Laboratory ETS, New Mexico MPS 48760
2001 09 25.30911 00 13 47.25 -09 23 34.7 17.9   644 – Palomar Mountain/NEAT MPS 48760
2001 09 25.33043 00 13 45.99 -09 23 36.6 17.9   644 – Palomar Mountain/NEAT MPS 48760
2001 09 25.35160 00 13 44.76 -09 23 39.0 18.2   644 – Palomar Mountain/NEAT MPS 48760
2001 10 08.31225 00 02 09.36 -09 33 54.5 18.2   644 – Palomar Mountain/NEAT MPS 37588
2001 10 08.33359 00 02 08.25 -09 33 54.4 18.4   644 – Palomar Mountain/NEAT MPS 37588
2001 10 08.35387 00 02 07.22 -09 33 53.9 18.3   644 – Palomar Mountain/NEAT MPS 37588
